This is the latest recevied weather packets stored in our database for station/object N0HOT. If no packets are shown the sender has not sent any weather packets the latest 10 day(s).
| Time | Temp. | Humidity | Pressure | Rain* | Wind** | Luminosity | Snow |
|---|---|---|---|---|---|---|---|
| 1788347855 | 19.44° C | 89% | 1013.6 hPa | 1.27 mm | - | 0 W/m² | - |
| 1788347566 | 19.44° C | 89% | 1013.9 hPa | 3.05 mm | - | 0 W/m² | - |
| 1788347246 | 19.44° C | 89% | 1014.3 hPa | 1.78 mm | - | 0 W/m² | - |
| 1788346942 | 19.44° C | 89% | 1014.6 hPa | 1.27 mm | - | 0 W/m² | - |
| 1788346641 | 19.44° C | 89% | 1015 hPa | 1.78 mm | - | 0 W/m² | - |
| 1788346337 | 19.44° C | 89% | 1015.3 hPa | 1.78 mm | - | 0 W/m² | - |
| 1788346032 | 19.44° C | 89% | 1015.3 hPa | 0 mm | - | 0 W/m² | - |
| 1788345729 | 19.44° C | 88% | 1014.6 hPa | 0 mm | - | 0 W/m² | - |
| 1788345427 | 19.44° C | 89% | 1014.3 hPa | 0 mm | - | 0 W/m² | - |
| 1788345122 | 19.44° C | 88% | 1014.3 hPa | 0 mm | - | 0 W/m² | - |
| 1788344818 | 19.44° C | 88% | 1014.6 hPa | 7.11 mm | - | 0 W/m² | - |
| 1788344516 | 19.44° C | 88% | 1014.3 hPa | 6.1 mm | - | 0 W/m² | - |
| 1788344210 | 19.44° C | 89% | 1015 hPa | 0 mm | - | 0 W/m² | - |
| 1788343910 | 19.44° C | 88% | 1013.9 hPa | 0 mm | - | 0 W/m² | - |
| 1788343605 | 19.44° C | 88% | 1013.2 hPa | 0 mm | - | 0 W/m² | - |
| 1788343299 | 19.44° C | 88% | 1012.8 hPa | 0 mm | - | 0 W/m² | - |
| 1788342998 | 19.44° C | 88% | 1012.5 hPa | 0 mm | - | 0 W/m² | - |
| 1788342698 | 19.44° C | 88% | 1012.5 hPa | 0 mm | - | 0 W/m² | - |
| 1788342393 | 19.44° C | 88% | 1013.2 hPa | 0 mm | - | 0 W/m² | - |
| 1788342090 | 20° C | 88% | 1013.2 hPa | 0 mm | - | 0 W/m² | - |
| 1788341784 | 20° C | 88% | 1013.2 hPa | 0 mm | - | 0 W/m² | - |
| 1788341482 | 20° C | 88% | 1013.2 hPa | 1.78 mm | - | 0 W/m² | - |
| 1788341172 | 20° C | 88% | 1013.2 hPa | 0 mm | - | 0 W/m² | - |
| 1788340868 | 20° C | 88% | 1013.2 hPa | 0 mm | - | 0 W/m² | - |
| 1788340563 | 20° C | 88% | 1013.6 hPa | 0 mm | - | 0 W/m² | - |
* Rain latest hour (hover to see other rain measurements)
** Current wind speed in m/s (hover to see current wind gust speed)